Location: Acequia del Cap
(41.7000°N, 0.6167°E)
Time: 16:00:57
(UTC+00:00)

Cosmos 2219 Rocket - Pass Details

Date: 07 August 2020
Orbit: 826 x 848 km, 71.0° (Epoch: 22 September)

Event Time Altitude Azimuth Distance (km) Brightness Sun altitude
Rises 00:04:08 0° 340° (NNW) 3,413 6.3 -32.0°
Reaches altitude 10° 00:06:40 10° 345° (NNW) 2,476 5.4 -32.0°
Enters shadow 00:11:43 51° 43° (NE) 1,063 2.8 -31.9°
